Location: *
(28.3744°N, 81.5492°W)
Time: 03:55:01
(UTC+00:00)

METEOR-M - Pass Details

Date: 15 June 2025
Orbit: 814 x 816 km, 98.7° (Epoch: 11 July)

Event Time Altitude Azimuth Distance (km) Brightness Sun altitude
Rises 08:48:03 0° 8° (N) 3,344 8.1 -19.1°
Reaches altitude 10° 08:50:25 10° 5° (N) 2,408 7.2 -18.7°
Maximum altitude 08:55:40 62° 285° (WNW) 912 4.2 -17.9°
Enters shadow 08:58:25 28° 214° (SW) 1,484 4.9 -17.4°
